Location: Aubervilles
(48.9167°N, 2.3833°E)
Time: 16:43:49
(UTC+00:00)

COSMOS 2428 - Pass Details

Date: 03 February 2023
Orbit: 843 x 858 km, 70.9° (Epoch: 30 March)

Event Time Altitude Azimuth Distance (km) Brightness Sun altitude
Rises 18:27:33 0° 160° (SSE) 3,390 5.7 -16.1°
Reaches altitude 10° 18:30:38 10° 144° (SE) 2,459 4.8 -16.6°
Enters shadow 18:32:18 16° 129° (SE) 2,088 4.3 -16.9°
